Showing default

IRIDIUM 108, 41924

Orbit data source: Space-Track

IRIDIUM 108, 41924 is a payload satellite owned by Iridium (US) in LEO that was launched on Sat, 14 Jan 2017 UTC via an FALCON 9 launch vehicle from the Air Force Western Test Range (AFWTR). Payload-class satellites include a variety of spacecraft equipped with specific instruments for various scientific and technological missions. These include communications satellites like Starlink; space stations such as the ISS; scientific satellites like the Hubble; Earth observation satellites from companies like Planet Labs, Umbra, and HawkEye 360; GPS; miniature CubeSats for education and research; and military/defense satellites.

Loading next visibility...
Identifier
41924, 2017-003H
Orbit
LEO
Country
Flag of USUS
Related business
Manufacturer
OATK SSG Gilbert
Mission
Operational Commercial Communications
Bus & Motor
ELITEBUS, Unknown motor
Mass
860 kg wet, 700 kg dry
Launch date (UTC)
2017-01-14 (9 years ago)
Launch vehicle
FALCON 9
Launch site
Air Force Western Test Range (AFWTR)
Object type
Payload
Rocket body
Debris
Shape & HBR
Trap Box + 2 Pan, 4.8 m
Radar Cross Section
10.154 m², Large (>1 m²)

Expand to show TLE details & history
Last TLE update: 10 hours ago

TLE from 10 hours ago
0 IRIDIUM 108
1 41924U 17003H   26125.61572318  .00000059  00000-0  13973-4 0  9991
2 41924  86.3950  74.5579 0002160  83.5155 276.6286 14.34217853489002
Epoch: 2026-05-05T14:46Z
TLE epoch observation values (Epoch: 2026-05-05T14:46:38.482Z)
Latitude
-0.00011°
Longitude
-10.59047°
Altitude
780.54 km
Speed
7.464 km/s
True Right ascension
04h 58m 13s
True Declination
0° 00' 00"
Sunlit
Object was in daylight at epoch
Visualization orbit readout
Latitude
Unknown
Longitude
Unknown
Altitude
Unknown
Speed
Unknown
Apparent Right ascension
Unknown
Apparent Declination
Unknown
Sunlit
N/A
Visualization observer readout
Local Sidereal Time
09:11:40
Azimuth
Unknown
Elevation
Unknown
Doppler factor
Unknown
Orbital elements
Apogee altitude
776.176 km
Perigee altitude
773.086 km
Semi-major axis
7,152.768 km
Eccentricity
0.00022
Inclination
86.395°
RAAN
74.5579°
Arg. of periapsis
83.5155°
True anomaly
276.60401°
Mean anomaly
276.6286°
Eccentric anomaly
276.61631°
Mean motion
3.58783 °/min
Orbital period
100.34 mins
BSTAR
0.000013973
Loading maneuver chart data...
Computing Atmospheric mass density...
Loading historical data...
Loading historical data...
Loading historical data...
Loading historical data...
Loading historical data...
Loading historical data...
Loading historical data...

Documentation

Showing up to 5 results
|